Location: Houston
(29.7631°N, 95.3631°W)
Time: 14:50:10
(UTC-05:00)

Tiangong 2 - Visible Passes

Search period start: 21 March 2019 00:00
Search period end: 31 March 2019 00:00
Orbit: 379 x 390 km, 42.8° (Epoch: 21 March)

Date Brightness Start Highest point End Pass type
(mag) Time Alt. Az. Time Alt. Az. Time Alt. Az.
21 Mar 2.5 06:49:42 10° NW 06:52:40 35° NNE 06:55:37 10° E visible
22 Mar 3.3 05:51:54 17° N 05:53:04 21° NNE 05:55:31 10° ENE visible
23 Mar 1.2 06:27:47 13° NW 06:30:28 73° NNE 06:33:38 10° ESE visible
24 Mar 2.9 05:31:35 31° ENE 05:31:35 31° ENE 05:33:52 10° E visible
25 Mar 1.3 06:07:49 45° WSW 06:08:09 48° SW 06:11:13 10° SE visible
27 Mar 2.5 20:37:32 10° SSW 20:39:47 22° SSE 20:39:47 22° SSE visible
28 Mar 2.0 21:13:58 10° WSW 21:16:20 46° W 21:16:20 46° W visible
29 Mar 1.3 20:14:32 10° SW 20:17:34 50° SE 20:20:26 11° ENE visible
29 Mar 4.4 21:52:02 10° WNW 21:52:42 13° WNW 21:52:42 13° WNW visible
30 Mar 2.6 20:51:52 10° W 20:54:44 33° NNW 20:56:36 18° NNE visible
